CZ-4 DEB

Satellite information

Favourite Embed

Satellite Type and Status

DEBRISIN ORBIT

Key statistics

Satellite CZ-4 DEB at a glance.

Uptime

12885

Days in orbit

Revolutions

≈ 13.8

Per day

Orbit

SSO

Sun Synchronous Orbit

Inclination

98.9

Latest

Satellite identification and parameters

Extended collection of information and parameters for CZ-4 DEB.

Object identification

Identified? True

Debris? True

Object name: CZ-4 DEB

International designator: 1990-081BC

Object number (NORAD): 20892

Object ID (CCSDS): 20892

Country: PEOPLES REPUBLIC OF CHINA (PRC)

Current information (Y/N): Y

RCS size: SMALL

Orbital parameters

Period: 104.122 minutes

Inclination: 98.9084 deg

SMA: 7331.441 km

Apoapsis: 1070.16 km

Periapsis: 836.452 km

RAAN: 186.6428 deg

Eccentricy: 0.0159387

Argument of periapsis: 118.33 deg

Mean anomaly: 298.2617 deg

Mean motion: 13.82989051 rev/day

Mean motion (dot): 0.00001222 rev/day2

B* drag term: 0.0010475962 1/REarth

Two-line elements (TLE)

Creation date: Dec. 11, 2025, 7:14 p.m.

Reference frame: TEME

Reference center: EARTH

Epoch: Dec. 11, 2025, 12:42 p.m. UTC

TLE line 0: 0 CZ-4 DEB

TLE line 1: 1 20892U 90081BC 25345.52973427 .00001222 00000-0 10476-2 0 9994

TLE line 2: 2 20892 98.9084 186.6428 0159387 118.3300 298.2617 13.82989051764700

Live tracking on map

Real-time ground track for satellite CZ-4 DEB.

In-orbit conjunctions

A list of the most updated potential collisions computed for object CZ-4 DEB.

Target Orbit TCA Probability of collision Miss distance Type
METEOR 1-19 LEO 2025-02-22 05:19:41 0.0007690474 908.0 (m) PAYLOAD
CZ-6A DEB LEO 2024-11-10 07:27:37 0.0001329362 260.0 (m) DEBRIS
COSMOS 1531 LEO 2024-10-16 05:32:45 0.0002778144 896.0 (m) PAYLOAD
FENGYUN 1C DEB SSO 2024-09-25 17:37:06 0.0003051791 676.0 (m) DEBRIS
SL-3 R/B LEO 2024-09-16 11:18:39 0.0001182632 489.0 (m) ROCKET BODY

Associated space launch

Chinese polar orbiting meteorological satellite

CZ-4 DEB was lifted into orbit during the mission ‘Long March 4A | Feng Yun 1B’, on board a Long March 4A space rocket.

The launch took place on Sept. 3, 1990, 12:53 a.m. from Launch Complex 7.

For more information about the launch, click the button.

Launch to space Long March 4A | Feng Yun 1B
Long March 4A | Feng Yun 1B

Agency: N/A

Status: Launch Successful

Launch date: Sept. 3, 1990, 12:53 a.m. UTC

Rocket: Long March 4A

Launch pad: Launch Complex 7

Location: Taiyuan Satellite Launch Center, People's Republic of China

...

Latest news about this satellite

There are no fresh news available about this satellite. Check back as we update our databases every day.


Newsletter sign-up

Weekly statistics, charts and insights to help you stay on top of the space industry.